Wind_Speed
31 31 30 27 26 26 26 26 26 23 22 20 19 18 17 19 21 23 25 26 25 21 18 20 20 18 23 26 24 21 19 17 15 14 15 16 17 19 20 19 18 18 18 18 18 17 17 16 14 14 14 13 13 12 11 10 8 9 9 8 6 5 5 7 9 11 12 14 15 14 13 13 13 13 13 15 17 20 20 21 22 23 24 25 25 26
32 31 29 27 28 29 28 28 27 24 23 21 19 17 17 18 19 20 24 25 24 22 19 19 20 19 23 28 27 25 21 18 17 15 15 16 17 18 20 20 20 18 18 19 18 18 17 17 16 15 14 14 13 13 12 11 9 9 8 7 6 5 4 6 8 10 11 13 14 14 14 13 13 13 14 16 19 21 22 23 24 25 26 26 25 24
33 32 29 28 29 29 28 28 26 25 24 22 20 17 17 18 17 18 21 24 24 23 21 18 19 20 24 31 30 28 26 22 20 18 17 18 18 18 19 20 20 18 18 19 19 19 18 17 16 16 15 15 14 14 13 12 10 10 8 7 6 5 4 5 7 9 10 11 13 15 14 13 13 13 15 18 21 22 24 25 26 26 26 25 24 23
32 31 30 29 30 29 28 27 26 26 25 24 22 19 20 20 17 17 21 25 24 23 21 18 17 19 26 33 33 31 28 25 21 19 18 19 19 19 19 19 19 18 18 19 20 20 19 18 17 17 16 16 16 15 14 13 11 10 9 8 6 5 4 5 6 8 10 11 12 14 14 13 13 13 15 18 21 23 25 26 26 26 25 23 22 21
32 33 32 29 29 30 28 27 27 26 26 27 25 22 21 21 21 20 22 24 24 22 21 17 15 18 26 33 35 32 29 26 24 21 19 19 20 20 19 19 19 19 19 19 20 21 20 19 18 17 17 17 17 16 14 13 12 11 10 8 7 5 4 4 5 7 10 11 13 15 15 14 13 14 15 18 20 23 24 25 25 24 23 21 20 19
34 34 32 30 30 29 28 27 28 28 28 28 27 24 20 19 21 22 22 23 23 22 21 18 15 17 25 32 34 33 30 28 26 22 20 20 20 20 18 18 19 20 20 20 20 21 20 20 19 18 17 18 18 17 15 14 13 12 11 9 7 6 4 4 4 6 8 10 12 14 16 16 15 15 16 19 20 22 23 23 23 22 21 19 18 17
36 34 33 33 30 29 28 28 29 30 29 28 29 27 22 20 21 22 22 22 22 21 20 19 16 15 23 32 34 33 32 29 28 25 22 22 21 20 18 18 19 20 20 20 20 20 20 20 19 19 19 19 19 18 17 15 14 13 11 10 9 7 5 4 5 5 6 9 11 13 16 18 17 16 17 18 20 21 22 22 21 20 18 18 17 16
35 33 34 33 31 30 29 28 29 30 29 29 28 27 24 23 23 22 22 21 21 21 18 17 15 13 20 33 33 32 33 31 30 28 23 22 22 21 20 20 20 20 20 20 20 20 20 20 20 20 20 20 19 19 18 16 15 13 12 11 10 9 7 6 6 6 6 8 10 11 14 17 18 18 18 19 20 21 21 21 19 18 17 16 16 15
31 32 34 32 31 30 29 30 31 31 31 31 28 26 26 26 25 23 23 22 21 20 18 17 15 10 16 31 33 30 33 32 30 27 23 22 23 23 22 22 22 22 21 20 20 20 21 20 20 20 21 21 20 19 18 17 16 14 13 11 11 11 9 8 7 7 7 8 9 10 13 16 18 19 19 20 20 21 21 20 19 17 16 15 14 14
33 34 35 33 32 31 30 32 32 33 33 30 27 28 28 28 27 24 23 23 21 20 19 19 17 10 11 26 33 29 28 28 28 27 25 24 25 24 24 24 24 23 22 21 21 21 21 21 21 21 21 21 21 20 19 18 17 16 14 12 12 12 11 10 8 7 8 8 9 10 12 14 17 19 20 20 20 21 20 20 19 18 16 15 14 13
34 35 35 34 34 34 34 34 34 36 35 30 30 30 29 28 29 26 25 24 21 21 21 19 17 14 10 18 27 27 24 25 27 27 28 28 27 26 27 27 25 24 24 23 21 21 22 22 21 21 21 21 21 20 20 19 18 17 15 14 13 13 13 12 10 9 8 9 10 10 11 13 15 17 19 20 20 20 20 19 18 17 16 15 14 13
32 34 35 35 35 34 34 33 35 37 35 33 33 31 28 28 28 28 27 25 22 21 22 21 19 17 13 12 17 20 21 22 24 24 26 28 28 27 27 28 27 26 25 24 23 22 22 22 21 21 21 21 21 21 21 20 19 18 17 15 15 14 14 13 12 11 10 10 11 11 11 12 14 16 18 20 20 20 19 18 17 16 15 14 13 12
32 34 36 35 35 34 33 34 35 37 35 35 35 32 30 27 25 26 27 26 23 21 21 23 21 18 15 13 11 12 14 17 19 19 21 24 27 29 29 29 29 28 27 26 25 23 22 22 22 21 21 21 21 22 21 21 20 19 18 17 16 15 15 14 13 12 12 11 11 12 12 12 13 15 17 18 20 21 20 19 18 17 15 14 13 12
34 36 36 36 36 35 35 36 36 36 36 37 37 34 31 28 24 24 25 24 23 23 23 24 23 20 16 13 11 11 11 12 14 15 17 18 22 28 31 31 31 30 29 28 27 25 23 23 24 23 23 23 23 22 22 22 21 20 19 18 17 17 16 15 14 13 13 13 12 12 13 13 13 14 15 16 18 19 20 20 19 18 17 16 15 14
34 35 36 36 36 36 36 37 37 37 37 38 37 34 33 30 25 22 24 24 22 24 25 24 24 21 16 12 10 11 12 12 11 12 14 16 18 23 29 32 32 31 30 29 28 26 25 24 24 24 24 24 24 23 23 23 22 21 20 19 18 18 17 16 16 15 14 14 14 13 14 14 14 14 14 15 16 16 17 18 19 18 18 18 16 15
37 38 38 37 37 36 36 37 37 36 35 35 36 36 33 31 28 24 23 24 23 24 24 23 24 22 17 13 12 11 11 12 13 12 13 14 15 18 24 29 32 32 31 30 28 27 26 26 25 25 25 25 25 24 24 24 23 23 22 21 19 19 18 17 16 16 16 15 15 14 14 14 15 15 14 14 14 15 15 16 16 17 17 17 16 16
37 38 39 38 36 35 34 35 35 33 32 33 36 37 34 32 31 27 23 23 23 23 22 21 22 22 20 17 14 13 12 12 13 14 14 14 14 14 18 23 28 30 30 30 29 28 28 27 27 26 26 26 26 25 25 25 25 24 23 22 21 19 19 18 17 17 16 16 15 15 15 15 15 15 14 14 14 14 14 14 14 15 14 14 14 14
37 37 39 38 34 34 34 34 35 33 33 34 35 36 35 33 32 30 26 23 21 21 21 20 20 21 22 19 15 14 14 13 13 14 15 15 14 12 14 19 24 27 30 31 30 29 29 29 28 28 27 27 27 27 27 27 26 25 24 23 23 21 20 18 17 17 17 16 16 15 15 15 14 14 15 15 15 14 14 14 14 13 13 13 13 13
39 37 38 38 34 33 35 35 35 36 36 36 35 35 35 33 31 30 29 25 21 21 21 20 19 21 21 19 16 15 15 15 15 14 14 14 13 11 13 17 21 26 29 32 32 31 30 30 30 29 28 28 28 28 28 28 27 26 25 24 24 23 22 19 18 17 17 17 16 16 16 15 14 14 14 15 15 15 14 14 14 13 13 13 13 13
38 32 30 35 35 32 34 36 36 37 38 37 36 37 35 33 31 31 30 27 23 21 20 19 19 21 21 19 17 16 16 15 15 14 13 13 12 11 12 16 22 28 31 33 33 33 32 32 31 30 29 29 29 29 29 28 28 27 25 25 25 24 24 22 20 19 19 18 18 18 17 17 16 15 15 15 15 15 15 14 14 14 14 14 14 13
38 33 27 31 36 34 34 37 36 36 37 37 37 36 35 34 33 32 31 28 24 22 20 18 19 21 21 19 18 18 16 15 15 15 14 13 12 12 11 13 19 28 34 36 35 34 34 33 32 31 31 30 29 29 29 28 28 27 26 25 25 25 25 24 23 22 21 20 20 20 19 19 18 17 17 17 16 16 15 15 15 15 15 15 15 14
38 36 30 31 34 33 33 35 34 35 37 36 35 35 35 36 35 33 31 28 26 25 21 19 19 19 19 19 19 18 16 14 14 14 14 14 14 13 12 11 14 23 32 38 37 35 35 34 33 32 31 30 30 30 30 29 28 27 27 26 26 25 25 26 25 24 23 22 21 21 21 21 20 20 19 19 18 18 17 16 16 16 16 15 15 15
37 38 36 34 32 30 34 37 36 36 36 34 33 35 36 36 35 33 30 27 28 27 23 20 19 17 17 19 18 17 15 14 14 14 14 14 14 14 14 12 12 16 27 37 38 36 34 34 33 32 31 30 30 31 31 30 30 29 28 28 27 26 26 26 26 25 25 24 23 22 21 21 22 22 21 21 20 20 19 18 18 17 17 17 16 16
36 37 38 36 34 34 38 39 36 35 35 34 35 36 37 37 34 31 30 28 28 28 25 22 20 15 16 19 18 16 16 15 15 14 13 13 14 15 14 11 9 10 18 31 35 34 33 33 31 31 31 31 30 31 31 31 31 30 29 29 28 28 28 27 26 26 26 26 25 23 22 22 22 22 23 23 22 22 21 20 20 19 18 18 18 17
35 36 36 35 35 37 38 36 34 35 36 36 36 36 36 37 35 33 33 32 29 28 27 26 23 18 18 20 19 17 17 17 17 16 14 13 13 14 13 11 9 8 11 20 27 28 30 32 31 31 31 32 32 31 31 32 32 31 30 30 30 30 29 28 28 27 27 27 27 26 24 24 24 24 24 24 24 23 23 22 22 21 20 19 19 18
33 34 35 33 32 34 35 35 36 37 36 36 37 38 38 39 37 35 35 34 31 29 29 28 26 20 19 20 19 17 17 17 17 17 16 15 14 13 13 11 10 9 9 12 17 20 24 27 31 32 32 32 33 33 32 32 32 32 32 32 32 31 30 30 29 29 29 29 28 28 27 26 25 26 26 26 26 25 25 24 24 23 22 21 21 19
32 32 35 34 32 32 33 35 37 36 35 37 39 39 38 39 40 37 35 35 33 31 29 28 26 21 20 21 19 17 18 18 18 18 17 16 15 14 13 12 11 11 11 12 14 16 18 21 26 32 35 35 34 34 34 33 33 33 33 33 33 32 31 31 31 30 30 30 30 29 28 28 27 27 27 27 27 27 26 26 25 24 23 23 22 22
32 32 33 34 33 33 33 34 36 35 34 35 37 36 36 39 40 39 37 36 34 32 30 28 26 23 22 22 20 19 19 18 18 18 17 18 17 15 13 14 13 12 12 12 14 16 17 18 21 27 34 38 37 35 35 34 34 35 35 35 34 34 33 33 32 32 32 31 31 30 29 29 28 28 28 28 28 27 27 27 26 25 25 24 23 23
32 33 32 33 34 34 34 34 34 33 32 33 34 35 37 38 38 38 37 35 33 32 30 27 26 26 26 25 22 20 19 19 18 18 18 19 18 17 15 13 13 13 12 13 13 15 16 18 20 22 26 32 36 36 37 37 36 36 37 37 36 35 35 34 34 33 33 32 31 30 30 30 30 29 29 29 29 28 28 27 27 27 26 25 25 24
31 31 31 32 33 35 36 34 33 32 32 33 33 34 35 36 36 37 37 36 33 31 29 26 26 29 31 30 28 24 21 20 19 19 19 19 18 18 17 15 14 13 13 13 13 14 16 17 19 20 21 25 30 34 39 40 41 41 40 39 38 36 35 35 35 34 33 33 32 31 31 31 30 30 30 29 29 29 29 28 28 28 28 27 27 26
29 28 28 32 33 33 35 35 34 33 32 33 34 34 34 35 35 37 37 36 32 30 30 28 26 27 30 32 33 30 26 24 23 22 21 20 20 20 19 18 16 15 15 14 13 14 15 17 18 19 20 22 25 31 38 43 45 45 42 40 39 38 37 36 35 34 33 33 33 33 32 32 32 32 31 30 30 29 29 29 28 29 29 29 28 28
28 29 29 33 33 31 33 36 35 34 34 34 33 32 33 35 36 36 37 36 33 30 29 30 30 28 28 30 33 33 32 30 29 27 25 24 23 22 21 20 19 18 18 17 16 16 16 17 18 19 20 21 23 27 34 44 49 46 42 42 40 38 37 35 34 34 33 33 33 34 33 33 32 32 32 31 31 31 30 30 29 29 29 29 29 29
28 30 30 33 33 29 30 35 36 35 36 36 33 31 32 34 34 34 34 34 33 31 31 32 33 32 30 30 31 31 32 33 32 32 31 28 27 26 25 24 23 22 21 20 20 19 18 18 19 19 21 22 22 22 25 36 47 47 41 39 38 36 36 35 33 34 34 33 33 33 33 33 33 33 33 32 32 32 31 31 31 30 30 29 29 30
26 30 29 31 31 27 28 34 35 34 36 36 34 32 31 31 32 33 33 32 31 32 32 32 31 30 31 32 31 30 31 32 33 33 33 32 31 30 29 28 27 26 25 24 23 22 21 22 21 20 21 20 21 20 19 23 37 44 40 37 39 41 40 37 34 34 36 36 34 33 32 32 33 33 33 33 33 33 33 33 33 32 31 30 31 31
26 30 28 28 29 27 27 33 34 34 37 35 32 31 30 29 29 29 29 29 29 29 30 30 30 30 30 30 30 30 31 32 33 33 32 32 33 33 32 32 31 30 29 27 27 26 26 25 24 22 22 19 17 17 17 16 25 37 41 40 41 42 43 43 41 39 40 40 38 37 35 34 34 35 34 33 32 33 34 35 35 33 32 32 33 33
26 30 27 25 28 27 27 31 34 36 37 34 30 30 31 30 29 28 27 27 27 27 28 28 29 29 29 28 27 28 29 30 30 30 30 31 33 34 34 33 33 33 32 31 31 29 29 29 29 27 27 25 21 17 15 12 14 24 34 40 42 43 43 45 45 44 43 42 41 40 38 36 37 37 35 33 32 33 35 36 35 35 35 35 35 34
25 30 29 26 27 28 27 29 32 32 31 30 29 28 29 30 30 30 28 27 27 27 28 28 27 27 27 26 26 26 27 27 27 28 29 30 31 33 34 33 34 35 34 34 33 32 31 30 29 28 27 28 28 25 22 19 16 16 19 25 34 40 44 47 47 45 44 43 43 43 41 38 39 40 39 37 34 34 35 36 36 38 38 37 36 35
22 29 31 29 29 29 27 27 29 29 28 29 30 28 28 29 30 30 30 29 28 29 28 27 27 26 26 25 25 25 24 24 25 25 27 28 30 32 33 32 33 33 33 33 31 30 30 29 28 27 26 26 28 29 29 28 25 22 18 15 17 23 30 37 44 48 48 46 43 43 42 40 41 43 43 42 40 39 38 37 39 41 40 37 36 35
18 23 29 31 31 31 28 25 27 30 29 28 29 30 30 30 30 30 31 31 31 31 29 27 26 26 26 26 25 24 24 25 25 25 26 27 28 30 31 31 31 31 30 30 29 27 27 27 27 27 27 26 25 25 26 27 26 25 24 22 18 15 14 16 23 33 43 48 47 44 42 41 44 48 48 46 44 43 40 39 41 42 40 38 37 36
15 17 22 27 29 30 29 27 27 29 28 27 28 29 31 31 30 31 33 33 32 31 29 28 26 25 25 26 25 26 28 28 28 28 29 29 28 28 28 28 29 30 29 28 29 28 27 26 27 27 26 24 23 22 22 23 25 25 26 27 27 24 20 17 16 17 23 32 38 41 39 36 36 41 45 47 47 47 45 43 43 43 42 42 40 38
15 15 16 20 22 23 24 27 28 28 27 27 27 28 31 32 33 34 35 33 30 28 27 27 26 26 26 27 28 30 32 32 31 30 29 28 28 28 28 27 27 29 29 29 30 30 29 28 27 27 26 24 22 21 21 21 22 23 24 26 27 27 27 27 25 22 19 19 22 26 27 24 21 21 24 28 32 36 38 37 37 39 41 41 42 42
15 15 14 15 17 18 20 24 27 25 26 27 26 26 28 29 31 33 33 30 27 27 27 27 28 28 29 29 30 32 32 31 30 29 28 27 28 29 29 29 29 28 29 30 30 30 30 29 28 27 27 26 24 23 23 23 22 23 23 24 25 25 24 23 22 22 22 21 21 21 21 21 19 17 15 14 14 17 19 20 21 24 25 26 29 33
14 15 15 15 15 16 18 21 23 22 22 25 26 27 27 26 26 27 27 28 29 29 28 28 28 29 30 32 32 33 34 32 30 29 29 29 29 29 30 30 31 31 31 31 31 31 30 30 29 28 28 28 27 27 26 25 25 25 25 24 24 23 22 21 19 18 20 22 24 23 22 22 22 21 20 18 17 17 18 18 18 19 18 19 22 23
14 15 15 15 15 17 18 20 20 20 20 21 24 27 28 25 23 22 23 28 31 32 31 31 30 30 32 32 32 33 34 33 32 32 33 33 33 32 32 31 31 32 32 31 31 31 31 31 31 30 29 29 29 28 28 27 25 25 26 26 26 25 24 22 20 19 21 23 25 25 26 25 24 23 23 24 24 25 24 24 24 24 23 23 24 23
13 14 14 15 16 18 18 17 17 18 20 20 21 23 25 24 23 22 22 25 29 32 33 32 31 32 32 33 33 32 31 29 29 30 32 33 34 35 35 35 34 33 33 33 32 31 32 32 32 32 31 30 30 29 29 28 27 26 26 27 27 26 25 25 23 22 23 24 25 25 26 25 24 23 23 23 23 24 25 26 26 26 25 24 24 23
11 12 13 14 15 16 17 17 17 19 21 22 23 23 24 24 24 24 23 24 28 32 33 33 34 34 33 34 36 34 31 29 30 30 30 30 31 33 35 37 37 36 35 35 35 34 33 33 33 33 33 32 32 31 31 30 30 29 29 28 28 28 27 27 26 26 26 26 27 27 27 26 26 25 24 23 23 23 23 24 25 25 25 25 25 25
11 11 12 13 14 15 16 16 17 18 20 22 24 25 26 26 25 25 26 26 28 30 32 33 34 36 36 36 36 34 32 33 35 36 35 34 33 33 33 34 36 36 35 35 35 35 34 34 34 34 34 34 34 34 33 33 33 32 32 32 32 31 31 30 30 30 30 30 30 30 30 31 30 30 29 29 28 27 27 27 27 27 27 28 28 28
11 11 11 12 12 14 14 14 15 17 18 20 22 24 25 26 26 26 27 27 28 30 30 30 31 33 35 36 37 35 34 33 33 35 36 37 37 37 35 34 33 33 33 33 34 34 34 34 34 34 35 35 35 36 36 35 35 35 35 35 35 35 35 34 34 34 34 34 34 34 34 34 34 35 34 34 34 33 33 33 32 32 32 33 33 33
9 10 10 11 12 13 13 14 14 15 16 17 19 20 22 24 25 25 26 26 27 28 29 29 29 30 32 35 38 40 38 36 35 35 35 36 37 37 37 37 36 34 33 34 34 35 35 36 36 36 36 36 37 37 37 37 38 38 38 38 38 38 38 38 38 37 37 38 38 38 37 37 37 38 38 38 38 37 37 37 38 37 37 38 38 38
8 9 10 12 13 13 13 14 14 15 16 16 17 18 19 20 21 22 23 24 25 27 28 29 29 31 32 35 39 42 41 39 38 37 36 36 37 38 37 38 38 37 37 37 37 38 38 38 38 38 38 39 39 39 39 39 39 40 40 40 41 41 42 42 42 42 42 41 42 42 42 42 41 41 42 42 42 42 42 42 42 42 41 42 42 42
9 10 11 12 13 12 12 13 14 15 15 16 17 18 19 19 20 20 21 22 23 24 26 27 28 30 33 36 40 44 45 41 38 37 36 35 35 37 39 39 39 38 38 39 40 40 41 40 40 40 40 41 41 41 41 41 41 41 42 42 43 43 44 44 45 46 46 45 45 45 46 46 46 46 46 46 47 47 47 46 46 46 45 45 45 45
Wind_Direction
204 205 207 205 207 208 208 205 204 201 199 200 203 204 209 217 219 217 217 218 217 217 222 222 219 217 211 203 196 194 196 195 194 195 194 190 186 179 176 182 190 195 195 193 192 188 185 186 190 192 190 188 190 190 187 186 177 166 160 150 138 126 116 112 113 115 122 132 136 132 125 121 120 119 119 121 125 130 133 133 130 128 128 127 126 126
205 206 205 203 205 206 206 206 203 200 199 199 202 203 208 217 222 221 219 218 216 215 220 221 222 223 214 203 193 192 196 197 194 195 194 190 188 186 182 182 189 193 195 194 192 191 188 187 188 192 192 190 191 192 190 187 181 175 172 160 148 141 124 112 114 115 120 131 140 139 131 124 120 119 121 124 128 132 134 134 133 132 131 130 129 128
206 205 203 204 205 204 205 205 202 200 198 199 202 204 209 215 220 224 222 217 212 212 215 218 226 229 215 202 194 191 194 195 194 195 194 191 190 192 189 184 187 191 194 194 193 193 192 188 188 190 191 190 191 194 192 188 184 181 180 172 159 148 131 115 114 116 118 127 140 144 138 128 121 119 123 127 130 134 136 136 136 135 134 134 133 133
208 205 204 205 205 203 203 201 199 199 198 198 199 202 211 211 210 221 222 214 209 208 211 216 227 226 211 201 194 191 194 195 194 194 193 191 191 195 195 189 187 189 192 194 193 194 193 191 190 190 191 190 191 195 194 190 186 184 183 179 167 150 134 123 118 119 122 126 137 146 144 135 126 122 125 131 133 136 139 139 139 138 138 138 138 137
210 208 205 204 204 204 202 198 197 197 198 200 199 201 210 209 205 211 212 207 206 207 209 217 228 221 209 202 194 191 194 197 198 197 194 193 194 196 198 194 189 189 192 194 195 194 193 193 192 191 192 191 190 193 195 194 189 186 186 182 169 155 142 135 129 125 126 129 137 147 149 144 136 131 132 136 138 140 142 142 142 142 142 142 142 140
210 209 208 207 204 204 201 196 195 197 199 202 202 202 208 210 209 210 204 200 203 207 210 219 229 221 211 204 197 194 195 198 201 200 196 196 196 196 199 198 195 193 192 194 196 196 194 195 193 191 193 192 189 189 194 198 195 190 189 183 171 162 155 150 146 135 131 132 137 147 153 153 148 142 141 143 145 145 146 147 147 146 146 146 146 144
210 207 208 208 205 203 201 196 196 198 200 202 203 203 205 207 210 210 202 200 204 208 213 218 224 230 216 204 198 196 195 197 201 201 201 201 197 195 195 198 200 199 196 195 196 197 197 197 195 193 194 193 189 187 192 199 200 196 192 184 174 169 168 170 166 152 142 139 139 146 154 158 156 151 149 150 152 152 152 153 153 152 151 151 151 150
209 206 209 207 204 203 200 197 197 198 201 203 202 202 205 206 209 209 202 200 207 212 215 213 218 237 219 200 195 197 197 198 200 201 203 204 200 196 193 196 202 201 200 198 196 197 197 198 199 196 194 192 189 187 191 199 203 201 196 186 177 173 174 181 179 169 161 152 146 147 154 160 162 159 157 157 159 160 160 160 160 160 159 158 157 157
207 208 210 207 204 203 199 198 197 196 202 204 198 197 204 209 210 209 203 201 207 214 217 213 213 235 214 194 191 196 198 199 201 204 208 207 204 200 194 196 201 201 200 200 198 197 197 198 200 199 196 193 189 187 190 197 204 205 201 192 182 177 179 185 185 178 174 167 158 152 154 161 166 166 166 165 166 167 168 169 169 168 168 167 166 165
206 208 209 205 204 201 200 201 199 198 202 201 195 196 204 210 212 212 208 205 207 214 219 217 215 226 209 193 191 193 196 198 202 207 213 212 207 202 197 197 202 201 198 198 200 199 198 199 200 201 199 193 188 187 191 197 203 206 203 197 187 181 183 188 186 181 180 176 170 164 159 161 167 171 172 173 173 174 175 177 178 178 177 176 175 175
205 209 209 205 204 200 200 201 199 201 201 197 195 200 205 210 212 213 212 208 209 217 223 221 216 217 214 201 196 194 194 200 205 210 217 219 213 204 199 199 202 202 199 198 199 200 199 199 200 200 200 196 189 187 191 198 203 206 204 201 195 187 187 192 188 181 185 183 178 174 168 164 167 173 177 180 182 183 183 185 186 187 186 186 186 185
206 210 210 207 205 202 202 202 203 204 200 195 198 201 204 210 214 215 217 214 211 219 226 225 220 217 227 227 205 194 194 202 207 211 219 225 220 208 200 201 202 203 202 199 200 201 199 198 199 200 201 199 194 190 191 196 203 206 205 203 201 195 192 196 192 182 184 188 183 179 177 171 168 172 178 184 188 191 192 193 195 196 196 196 198 198
205 211 211 208 205 202 202 203 206 207 200 196 200 203 204 208 213 215 219 220 218 222 227 227 226 224 233 242 226 207 201 200 205 210 215 221 220 210 201 200 203 204 203 202 201 200 198 198 198 199 201 201 198 196 193 194 202 207 207 205 205 202 198 199 198 189 184 187 186 181 181 181 176 174 177 184 190 195 198 201 203 204 205 205 206 208
204 210 212 210 206 203 202 204 207 208 203 200 202 204 205 206 210 215 217 219 221 227 230 228 228 229 234 240 238 232 225 210 207 211 214 217 218 212 203 200 203 205 205 203 202 200 198 199 199 198 201 202 200 200 198 196 199 205 209 207 206 207 204 202 202 196 187 185 186 183 183 185 184 180 178 181 187 194 199 204 207 211 213 213 213 215
203 210 213 211 208 204 203 206 207 207 205 204 203 204 207 207 207 214 217 217 221 228 231 230 230 231 234 240 237 233 234 228 221 218 216 217 220 217 209 204 203 206 206 205 203 200 198 199 201 199 201 203 201 201 202 200 199 203 208 210 207 208 210 207 205 202 194 188 186 185 185 187 188 186 184 183 185 190 196 201 205 211 216 219 220 221
203 208 210 210 210 205 204 207 209 208 206 207 207 206 209 210 209 213 217 217 222 229 232 232 233 233 234 239 239 233 232 233 232 229 223 219 220 222 219 212 208 206 207 206 204 201 199 199 201 201 201 202 202 202 203 204 203 202 206 210 210 210 212 214 212 208 202 195 190 188 188 190 192 190 189 189 189 190 194 199 202 206 212 218 221 224
205 211 211 209 209 207 205 209 210 209 206 207 209 209 209 211 211 212 216 218 222 229 232 232 233 234 233 235 237 233 228 227 229 231 229 227 226 227 227 224 219 213 209 208 206 203 200 199 201 202 202 202 202 203 204 205 206 204 204 208 211 211 213 216 218 216 211 205 199 195 193 194 195 193 192 195 198 196 195 199 202 205 208 213 217 221
204 212 212 209 209 207 206 208 208 206 206 207 209 210 211 213 213 212 214 218 220 224 229 229 230 231 230 229 229 227 225 224 223 224 225 227 230 232 233 233 232 227 219 213 209 207 203 200 201 202 202 202 202 203 205 205 206 206 204 206 210 211 212 215 220 222 221 215 209 205 202 200 200 199 196 197 201 203 202 202 203 205 209 212 216 220
204 212 214 209 208 208 207 208 208 206 207 207 206 208 211 214 217 216 216 218 219 220 225 228 229 230 228 226 224 223 223 224 224 223 222 224 227 232 237 237 237 237 231 221 213 209 206 203 202 202 202 203 204 204 205 205 205 206 206 206 208 211 211 212 217 223 225 224 220 215 213 210 207 206 206 204 203 205 207 209 209 208 209 213 217 220
204 210 217 211 208 209 208 208 208 207 209 208 205 207 209 210 214 217 216 217 217 219 223 225 226 228 226 223 225 226 224 225 227 226 224 225 227 233 243 243 240 239 236 229 218 210 207 205 203 203 203 204 206 206 206 207 206 206 207 208 209 210 210 209 211 216 221 223 223 222 220 217 214 212 213 212 209 209 210 212 215 214 213 213 216 220
205 208 216 212 208 208 209 209 210 210 211 210 208 207 208 209 212 214 215 214 213 216 220 219 221 224 221 219 223 225 224 225 228 228 226 227 230 237 246 248 242 237 234 232 223 211 207 206 204 205 205 205 207 208 209 210 209 207 208 210 212 212 211 210 209 211 216 219 221 222 222 221 219 217 217 217 214 213 214 215 218 220 219 218 218 219
207 208 212 212 209 209 213 212 211 212 211 211 210 210 209 210 212 214 215 215 215 215 215 214 217 216 211 213 219 221 220 221 227 229 228 228 233 240 246 249 244 234 231 232 225 211 205 206 205 206 207 207 207 209 211 212 212 211 210 212 214 214 214 213 211 212 214 217 218 220 221 222 221 219 219 219 217 216 216 217 220 223 225 225 224 223
210 209 211 213 208 209 215 214 211 212 212 210 210 211 211 213 214 215 216 217 217 217 215 215 217 213 206 210 217 221 221 221 225 230 229 229 233 239 244 247 244 233 232 233 225 212 206 206 207 208 209 210 210 211 212 213 214 214 213 213 215 216 217 216 215 214 215 217 219 220 221 222 223 222 221 220 220 219 218 218 221 224 226 229 229 228
212 211 212 213 209 209 214 213 211 212 211 210 209 209 211 214 216 216 218 220 219 217 217 218 219 214 209 213 218 222 226 225 226 232 234 232 234 240 245 248 247 243 239 235 225 213 208 208 209 211 212 212 213 214 215 215 215 216 215 216 217 217 218 219 219 219 219 219 220 222 223 224 225 225 224 223 222 222 221 220 222 224 226 229 232 233
213 212 212 213 213 215 217 216 214 213 211 209 210 210 210 212 214 215 216 219 220 217 217 219 218 213 209 215 221 225 227 226 225 228 233 236 239 243 249 253 254 254 247 237 228 218 214 213 214 217 216 216 216 216 218 218 218 218 217 218 219 219 219 220 221 222 222 222 222 223 224 225 226 227 226 226 225 224 224 223 223 224 226 229 231 234
211 212 212 212 212 216 218 218 217 215 212 211 210 210 208 209 212 214 214 218 219 217 218 220 219 214 209 214 218 222 226 225 223 223 226 234 239 243 247 252 252 248 238 231 229 226 223 221 222 222 221 221 220 218 219 221 221 221 219 220 221 221 221 221 223 223 224 225 225 225 225 226 227 228 228 228 227 226 226 225 225 225 226 228 230 233
209 210 211 211 211 212 214 217 219 216 214 214 213 212 209 209 212 214 215 218 218 218 220 222 221 213 208 210 209 213 221 223 221 221 222 228 235 240 242 244 245 243 233 227 229 231 232 234 233 227 223 223 224 223 222 223 223 223 223 223 223 223 222 223 224 225 226 227 226 226 227 228 229 231 230 230 230 229 229 228 228 228 227 228 230 232
208 209 211 211 212 212 211 214 217 217 216 217 218 216 213 212 214 214 216 219 220 220 222 223 221 214 208 207 204 205 214 219 219 219 219 224 229 232 235 238 241 243 241 236 235 234 235 240 245 239 229 226 227 227 227 227 225 224 224 224 224 224 223 224 225 226 227 228 228 228 229 230 231 233 233 233 233 232 232 231 231 232 231 230 231 232
206 208 212 212 212 214 214 214 215 215 216 218 218 219 217 216 217 217 218 222 222 222 222 223 223 220 214 211 207 205 208 213 215 216 218 222 224 225 226 227 232 238 243 244 243 243 242 240 246 249 242 235 232 231 232 232 230 227 225 224 224 224 224 224 225 227 229 230 230 229 230 231 232 234 235 235 235 234 234 234 234 234 235 234 234 234
205 206 211 212 211 214 215 215 216 215 215 217 217 219 219 219 218 218 220 222 223 224 224 223 221 221 218 216 215 213 211 213 216 217 218 219 219 220 220 217 219 224 230 237 242 246 248 247 248 250 249 245 242 237 234 234 232 228 225 224 224 224 224 225 226 227 230 232 233 232 232 233 234 235 236 237 238 238 237 236 236 236 237 237 237 238
204 205 209 209 210 214 216 215 216 214 213 215 215 216 217 218 218 218 219 222 225 227 228 225 221 221 222 222 222 222 220 220 223 224 223 222 219 218 217 216 219 222 224 229 235 239 246 251 253 252 249 248 248 243 237 234 232 229 225 225 225 223 223 225 226 228 231 233 235 235 234 234 235 236 237 238 239 240 240 239 238 238 239 240 239 240
206 204 208 208 208 213 216 214 214 214 214 215 216 216 217 218 220 220 221 224 228 230 233 233 229 225 225 226 226 226 227 228 229 229 228 227 225 223 221 222 226 230 231 232 234 237 243 251 253 254 252 249 249 248 241 234 233 231 227 225 225 224 224 226 229 231 233 234 237 238 238 237 236 237 238 238 239 239 240 240 240 240 241 242 242 242
210 206 208 208 207 211 214 212 213 214 215 215 215 215 218 220 222 223 225 228 232 233 233 234 233 229 230 232 230 228 229 229 230 230 230 230 231 230 229 230 232 235 236 237 240 241 244 250 255 256 255 252 250 251 247 237 234 232 227 225 228 229 227 229 232 235 236 236 236 239 240 240 239 238 239 240 239 239 239 239 240 240 240 242 242 243
214 210 207 206 206 207 208 209 211 213 215 215 213 213 216 219 223 225 227 229 233 235 234 235 235 234 236 237 236 234 232 230 229 230 231 232 234 234 234 234 235 238 241 243 246 247 248 252 256 255 253 252 250 249 252 244 235 229 221 216 222 227 226 224 227 233 238 238 235 235 237 239 240 239 239 241 241 241 241 241 240 240 240 241 242 242
216 213 210 207 207 206 204 205 207 212 215 213 209 209 211 214 218 224 227 230 233 237 238 238 238 238 240 242 242 240 237 233 231 232 234 234 235 235 236 237 238 240 243 247 249 251 253 253 256 257 255 256 258 251 249 248 239 232 224 217 219 224 224 222 220 222 229 233 232 230 231 234 239 240 239 240 242 243 244 243 243 242 241 241 241 242
217 215 213 210 211 210 203 201 206 213 216 214 210 210 213 214 217 221 225 228 232 236 239 241 242 242 243 245 246 244 242 239 237 238 238 237 236 236 237 239 241 242 245 248 250 253 255 254 255 259 259 259 262 252 238 239 242 237 233 231 231 229 225 224 223 222 225 230 231 228 226 228 235 239 238 238 240 244 246 246 245 245 243 242 242 242
216 216 213 211 214 216 208 201 205 211 213 212 212 212 215 218 221 224 227 230 234 238 240 243 244 245 245 245 246 245 245 244 244 244 243 241 239 238 238 239 242 243 245 248 250 252 254 255 255 258 260 260 260 254 248 253 258 249 242 239 236 233 229 229 230 227 227 230 232 230 228 228 233 236 237 235 234 238 242 243 243 243 243 243 244 245
214 215 215 213 214 217 214 209 209 210 208 209 211 213 216 220 224 228 231 233 236 240 242 243 245 245 245 245 245 245 246 247 248 247 245 244 242 240 239 240 242 244 245 248 249 250 252 253 252 253 256 259 260 258 259 263 263 258 253 244 228 224 227 232 233 231 230 231 231 231 231 231 232 232 233 233 232 232 235 238 242 243 243 243 245 246
208 213 216 218 219 217 214 212 216 218 213 211 214 215 218 222 226 230 233 235 237 239 241 243 244 244 245 244 243 244 245 244 245 245 243 243 242 242 241 241 242 244 245 247 247 247 247 248 248 249 252 255 257 259 259 259 259 256 254 251 244 231 222 228 234 234 233 233 233 234 235 235 234 234 234 234 232 231 232 235 239 242 242 243 244 245
206 207 213 219 223 223 219 216 219 221 217 214 215 215 218 222 225 228 231 232 232 234 236 238 239 240 242 242 240 241 241 240 240 241 242 242 243 243 242 242 243 244 245 246 246 245 244 244 245 247 250 252 253 254 253 252 255 255 253 253 255 254 248 246 250 248 241 235 232 232 232 233 234 234 234 233 234 234 234 236 238 239 240 242 243 243
212 212 214 215 218 221 220 219 221 222 218 216 214 214 217 221 223 227 229 227 224 224 226 230 233 235 237 239 239 240 241 241 240 241 244 246 247 245 243 241 242 243 244 244 246 245 244 244 243 245 248 250 250 251 251 251 253 256 255 253 256 258 258 258 260 262 260 249 236 228 225 227 229 226 222 222 226 231 234 236 238 239 239 241 243 243
211 214 216 213 211 211 213 217 220 220 218 218 216 214 216 218 219 223 226 223 218 217 219 224 229 232 234 237 238 240 241 242 243 243 245 246 247 244 241 238 237 238 240 241 242 244 244 245 245 245 246 248 251 252 253 252 251 254 256 255 256 259 263 264 262 258 253 247 242 236 231 231 233 230 225 217 214 225 233 233 234 235 232 233 239 242
206 210 211 210 210 209 210 215 219 219 221 222 220 219 220 220 219 221 222 221 219 219 222 225 228 232 235 236 239 242 243 242 242 243 243 243 243 241 237 234 232 232 234 236 238 240 242 243 245 245 246 247 249 251 253 253 252 253 256 258 259 260 263 265 262 254 245 241 241 243 243 242 240 241 242 237 229 231 234 230 231 233 228 225 232 237
203 208 210 210 210 211 214 218 219 218 223 228 226 225 227 228 227 228 230 228 224 220 222 226 228 232 236 238 240 241 240 240 243 244 242 240 240 239 237 232 229 228 230 232 234 237 239 240 242 244 245 246 247 249 252 253 254 254 256 258 261 262 262 263 260 253 248 246 246 248 250 251 250 247 245 243 241 241 243 243 246 250 249 246 244 243
201 205 208 210 212 214 218 222 219 215 219 228 231 231 233 234 232 232 236 238 231 222 220 223 227 230 233 235 236 238 238 238 241 243 241 239 239 239 239 236 233 232 232 234 235 238 240 241 243 244 245 247 247 248 249 251 252 253 254 257 260 262 262 262 261 257 252 250 250 251 253 253 253 251 248 247 246 247 248 251 253 255 256 256 255 252
198 202 205 208 213 216 219 220 219 216 218 224 228 231 233 234 233 232 235 239 235 228 222 222 224 227 232 234 235 236 240 240 238 237 239 240 239 239 239 239 239 239 238 239 240 243 244 246 247 249 249 251 251 251 251 251 252 253 254 255 257 259 260 260 260 259 257 254 252 253 253 254 254 254 253 252 250 250 251 252 253 255 255 255 255 254
193 196 203 207 212 218 220 220 220 219 218 220 224 228 232 233 231 230 231 234 236 233 229 226 225 225 229 233 235 238 244 246 243 241 241 240 239 240 239 238 239 240 241 242 243 245 246 248 249 251 251 252 253 253 253 254 254 254 255 255 256 257 257 257 257 258 258 257 255 254 254 255 255 256 256 256 255 255 254 254 255 256 257 257 257 257
195 196 200 203 209 216 220 221 223 224 224 224 225 227 230 232 231 229 229 231 235 237 237 236 234 231 230 231 233 236 239 241 241 241 241 240 239 240 238 236 236 238 240 243 245 247 248 250 252 253 254 254 253 253 253 253 253 252 253 253 254 255 256 256 255 255 256 257 257 256 255 255 256 256 257 257 257 256 256 256 256 257 258 259 260 260
206 205 205 206 211 215 216 216 220 223 225 227 229 230 232 234 235 233 231 232 235 239 241 241 241 239 235 233 234 235 237 238 239 239 240 239 238 237 235 234 237 241 245 247 248 249 250 251 253 255 256 256 256 255 254 253 252 252 251 250 250 251 252 253 254 254 253 254 255 256 255 255 255 256 256 257 257 256 256 256 256 256 257 258 259 260
214 213 213 214 217 220 219 218 220 223 223 224 227 230 232 234 235 235 235 234 234 237 240 242 242 240 237 236 238 240 241 242 241 241 242 242 240 239 239 240 243 247 251 253 254 255 255 255 255 256 256 256 256 256 255 254 253 253 252 251 250 250 249 250 250 251 251 252 252 253 254 254 254 254 255 256 256 256 256 256 255 255 255 256 258 259
223 223 224 225 226 227 228 227 228 230 231 230 230 231 232 233 234 235 234 234 234 235 236 238 239 239 237 236 238 241 242 243 242 241 243 246 245 243 245 248 250 252 253 255 257 258 259 260 260 259 258 257 257 256 255 255 254 253 252 251 251 251 250 250 250 250 250 250 250 251 252 253 254 254 254 254 255 256 257 257 257 257 256 256 257 257
Height
5865 5867 5870 5873 5876 5879 5882 5884 5886 5889 5891 5893 5895 5897 5898 5898 5898 5899 5900 5902 5903 5906 5907 5907 5908 5909 5910 5912 5914 5916 5917 5919 5920 5921 5923 5923 5925 5926 5926 5928 5930 5931 5933 5935 5936 5937 5938 5940 5941 5942 5943 5944 5945 5946 5946 5947 5948 5948 5948 5948 5949 5949 5950 5950 5950 5950 5950 5950 5951 5951 5951 5952 5952 5952 5952 5953 5953 5953 5954 5955 5956 5957 5958 5959 5960 5961
5863 5865 5868 5872 5873 5875 5878 5881 5884 5887 5890 5892 5894 5895 5896 5897 5897 5897 5898 5900 5902 5904 5905 5906 5906 5907 5908 5910 5913 5915 5917 5918 5919 5920 5922 5923 5924 5925 5926 5927 5929 5931 5932 5934 5936 5937 5938 5939 5941 5942 5943 5944 5945 5946 5947 5947 5948 5948 5948 5949 5950 5950 5950 5951 5951 5951 5951 5952 5952 5952 5953 5953 5953 5954 5954 5954 5954 5955 5956 5957 5958 5958 5960 5961 5962 5963
5860 5863 5867 5869 5870 5872 5875 5879 5883 5885 5888 5890 5892 5894 5894 5895 5895 5895 5897 5898 5900 5901 5902 5904 5904 5905 5906 5909 5911 5913 5914 5916 5918 5919 5920 5922 5923 5925 5926 5927 5928 5930 5932 5934 5935 5937 5938 5939 5941 5942 5943 5944 5945 5946 5947 5947 5948 5948 5949 5949 5950 5951 5951 5952 5952 5952 5952 5953 5953 5954 5954 5954 5955 5955 5955 5956 5956 5957 5958 5958 5959 5960 5962 5963 5964 5965
5859 5862 5864 5866 5868 5871 5873 5877 5881 5884 5887 5888 5890 5891 5892 5893 5895 5895 5895 5897 5898 5899 5900 5902 5902 5903 5904 5906 5908 5910 5913 5915 5917 5918 5919 5920 5922 5924 5926 5927 5928 5930 5932 5933 5935 5936 5938 5939 5940 5942 5943 5944 5945 5946 5947 5948 5948 5949 5949 5950 5951 5951 5952 5952 5953 5953 5953 5954 5954 5955 5956 5956 5956 5957 5957 5958 5958 5959 5960 5960 5961 5962 5964 5965 5966 5966
5858 5860 5861 5864 5866 5869 5872 5875 5879 5882 5885 5886 5887 5888 5889 5891 5893 5893 5894 5895 5896 5897 5898 5900 5901 5901 5903 5904 5906 5909 5912 5914 5915 5917 5918 5919 5921 5923 5925 5926 5928 5929 5931 5933 5934 5936 5937 5939 5940 5941 5942 5944 5945 5946 5947 5948 5949 5949 5950 5951 5951 5952 5952 5952 5953 5954 5954 5955 5955 5956 5957 5957 5958 5958 5959 5959 5960 5961 5962 5963 5963 5964 5965 5966 5967 5968
5854 5856 5860 5862 5865 5867 5870 5874 5877 5879 5882 5884 5885 5886 5887 5889 5890 5891 5893 5894 5895 5896 5897 5899 5900 5900 5902 5903 5905 5908 5910 5912 5914 5916 5917 5918 5920 5922 5924 5926 5927 5929 5931 5933 5934 5935 5937 5938 5939 5941 5942 5943 5944 5946 5947 5948 5949 5949 5950 5951 5952 5952 5952 5953 5953 5954 5955 5955 5956 5956 5957 5958 5959 5959 5960 5960 5961 5962 5964 5964 5965 5966 5967 5968 5968 5969
5850 5854 5857 5860 5863 5866 5869 5872 5874 5876 5879 5881 5883 5884 5886 5887 5889 5890 5892 5894 5894 5895 5896 5898 5899 5899 5900 5902 5904 5906 5908 5910 5912 5914 5916 5917 5919 5921 5923 5925 5927 5928 5930 5932 5933 5935 5936 5938 5939 5940 5942 5943 5944 5945 5946 5947 5948 5949 5950 5951 5952 5952 5953 5953 5953 5954 5955 5956 5957 5957 5958 5959 5959 5960 5961 5962 5963 5964 5965 5966 5967 5968 5968 5969 5970 5970
5849 5853 5855 5858 5862 5864 5867 5870 5872 5875 5877 5878 5880 5883 5885 5886 5888 5889 5892 5893 5893 5894 5895 5896 5897 5897 5897 5900 5903 5905 5906 5908 5910 5912 5915 5917 5918 5920 5922 5924 5926 5928 5929 5931 5932 5934 5936 5937 5938 5940 5941 5943 5944 5945 5946 5947 5948 5949 5950 5951 5952 5952 5953 5953 5954 5954 5955 5956 5957 5958 5959 5959 5960 5961 5962 5963 5964 5965 5966 5967 5968 5969 5970 5971 5971 5972
5848 5850 5852 5856 5860 5863 5866 5867 5869 5872 5874 5875 5879 5882 5883 5885 5887 5888 5891 5892 5892 5893 5894 5895 5896 5896 5896 5898 5901 5903 5904 5906 5909 5912 5913 5916 5917 5919 5921 5922 5924 5926 5928 5930 5931 5933 5934 5936 5938 5940 5941 5943 5944 5945 5946 5947 5948 5949 5950 5951 5952 5952 5953 5953 5954 5954 5955 5956 5957 5958 5959 5960 5961 5962 5963 5964 5965 5966 5967 5968 5969 5970 5971 5972 5972 5973
5845 5847 5849 5854 5857 5861 5863 5865 5867 5869 5870 5874 5878 5879 5881 5884 5886 5888 5890 5891 5892 5893 5893 5893 5895 5896 5896 5898 5900 5902 5904 5907 5909 5911 5912 5914 5916 5918 5919 5921 5923 5925 5927 5929 5930 5931 5933 5935 5937 5939 5941 5942 5944 5945 5946 5947 5947 5948 5950 5951 5952 5952 5953 5953 5954 5955 5955 5956 5957 5958 5959 5960 5961 5962 5964 5965 5966 5966 5967 5969 5970 5971 5972 5973 5973 5974
5842 5845 5848 5851 5854 5858 5860 5862 5864 5866 5868 5873 5876 5877 5880 5883 5885 5887 5889 5891 5892 5892 5892 5893 5895 5896 5897 5898 5899 5901 5904 5906 5907 5909 5910 5911 5913 5916 5918 5919 5921 5923 5925 5927 5929 5930 5932 5934 5936 5939 5940 5942 5943 5944 5945 5946 5947 5948 5949 5951 5952 5953 5953 5953 5954 5955 5956 5956 5957 5958 5959 5960 5961 5963 5964 5965 5966 5967 5968 5969 5970 5971 5972 5973 5974 5975
5842 5843 5845 5848 5852 5855 5858 5861 5862 5864 5867 5871 5874 5876 5879 5882 5884 5887 5888 5890 5892 5892 5892 5893 5895 5896 5896 5897 5899 5900 5902 5903 5905 5908 5909 5910 5912 5914 5917 5918 5920 5922 5924 5925 5927 5929 5931 5933 5935 5938 5940 5941 5942 5943 5944 5946 5947 5947 5948 5950 5951 5952 5953 5953 5954 5955 5956 5957 5957 5958 5959 5960 5961 5962 5964 5965 5966 5967 5968 5969 5970 5971 5972 5973 5974 5975
5840 5841 5843 5846 5850 5854 5857 5859 5861 5863 5866 5869 5872 5875 5878 5881 5883 5885 5887 5890 5891 5892 5892 5892 5893 5894 5896 5897 5898 5899 5900 5902 5904 5906 5907 5908 5910 5912 5915 5917 5919 5920 5922 5924 5926 5928 5930 5932 5934 5936 5938 5940 5941 5942 5943 5945 5946 5947 5948 5949 5951 5952 5952 5953 5954 5955 5956 5957 5958 5958 5959 5960 5961 5962 5963 5964 5965 5967 5968 5969 5970 5971 5972 5973 5973 5974
5837 5839 5841 5844 5848 5851 5854 5857 5859 5862 5864 5867 5870 5874 5877 5879 5882 5884 5887 5889 5891 5891 5890 5891 5893 5894 5895 5896 5897 5898 5900 5902 5903 5904 5906 5907 5908 5910 5913 5916 5918 5919 5921 5922 5924 5926 5928 5930 5932 5933 5936 5938 5939 5941 5942 5944 5945 5946 5947 5949 5950 5951 5952 5953 5954 5955 5956 5957 5958 5958 5959 5960 5961 5961 5962 5964 5965 5966 5967 5968 5969 5970 5971 5972 5973 5973
5836 5838 5840 5842 5846 5849 5852 5855 5857 5860 5862 5865 5869 5872 5875 5878 5881 5883 5886 5888 5889 5888 5888 5891 5892 5893 5895 5896 5896 5898 5899 5901 5902 5904 5905 5906 5907 5908 5910 5913 5915 5918 5919 5920 5922 5924 5926 5928 5930 5931 5934 5936 5938 5940 5941 5943 5944 5946 5947 5948 5949 5950 5951 5952 5953 5955 5956 5956 5957 5958 5959 5960 5960 5961 5962 5963 5964 5965 5966 5967 5968 5969 5970 5971 5972 5973
5833 5834 5836 5839 5843 5847 5850 5853 5855 5858 5862 5865 5868 5870 5873 5876 5879 5881 5883 5885 5887 5887 5887 5889 5891 5892 5894 5894 5895 5897 5899 5899 5901 5902 5904 5905 5906 5907 5908 5910 5913 5916 5918 5919 5920 5922 5924 5926 5928 5930 5932 5934 5936 5938 5940 5942 5943 5944 5946 5947 5948 5950 5951 5952 5953 5954 5955 5956 5957 5957 5958 5959 5960 5960 5961 5962 5963 5964 5965 5966 5967 5968 5969 5970 5971 5972
5831 5832 5834 5838 5841 5845 5849 5851 5855 5859 5862 5864 5866 5869 5872 5874 5877 5880 5882 5884 5885 5886 5886 5889 5891 5891 5892 5893 5895 5896 5898 5898 5900 5901 5903 5904 5905 5906 5907 5909 5911 5913 5916 5917 5919 5920 5922 5924 5926 5928 5930 5932 5935 5937 5938 5940 5941 5943 5945 5946 5947 5949 5950 5951 5952 5953 5954 5955 5956 5957 5958 5958 5959 5960 5961 5962 5963 5963 5964 5965 5966 5967 5968 5969 5970 5971
5829 5830 5832 5836 5840 5843 5847 5849 5853 5857 5859 5861 5864 5867 5871 5873 5875 5878 5881 5882 5884 5885 5886 5888 5890 5890 5891 5893 5894 5895 5896 5897 5899 5900 5902 5903 5904 5905 5906 5908 5909 5911 5913 5916 5917 5919 5920 5922 5924 5927 5929 5930 5932 5934 5936 5937 5939 5942 5944 5945 5946 5947 5949 5950 5952 5953 5954 5955 5956 5956 5957 5958 5959 5960 5961 5962 5962 5963 5964 5964 5965 5966 5967 5968 5969 5970
5826 5829 5831 5835 5839 5841 5844 5847 5850 5853 5855 5858 5862 5865 5869 5872 5874 5877 5879 5881 5883 5884 5885 5887 5888 5889 5890 5892 5893 5894 5896 5897 5898 5899 5901 5902 5903 5904 5905 5906 5907 5908 5910 5912 5915 5917 5919 5921 5923 5925 5927 5928 5930 5932 5934 5935 5938 5940 5942 5944 5945 5947 5948 5950 5951 5952 5953 5954 5955 5956 5956 5957 5959 5960 5961 5961 5962 5963 5964 5964 5965 5966 5967 5968 5969 5969
5825 5829 5830 5833 5837 5839 5842 5845 5848 5851 5853 5856 5859 5862 5866 5869 5872 5874 5876 5879 5881 5883 5884 5886 5887 5888 5889 5890 5892 5894 5895 5897 5898 5899 5900 5901 5902 5903 5904 5905 5905 5906 5906 5908 5912 5916 5918 5919 5921 5923 5925 5926 5928 5930 5932 5934 5936 5938 5940 5942 5944 5946 5947 5948 5950 5951 5952 5952 5953 5954 5955 5956 5958 5959 5960 5961 5962 5963 5964 5964 5965 5966 5966 5967 5968 5969
5823 5827 5828 5830 5834 5837 5840 5842 5846 5849 5852 5855 5858 5860 5863 5866 5869 5871 5873 5877 5879 5881 5883 5885 5886 5886 5887 5889 5891 5892 5894 5896 5897 5898 5899 5900 5901 5901 5902 5903 5903 5904 5904 5905 5908 5913 5916 5917 5919 5920 5922 5924 5927 5929 5930 5932 5934 5936 5938 5940 5942 5944 5946 5947 5948 5949 5950 5951 5952 5953 5954 5955 5956 5957 5959 5960 5961 5962 5963 5964 5965 5965 5966 5967 5967 5968
5821 5824 5826 5829 5833 5837 5838 5840 5844 5847 5849 5853 5857 5860 5861 5864 5866 5869 5872 5875 5878 5879 5881 5883 5884 5884 5886 5888 5889 5891 5894 5895 5896 5897 5898 5899 5899 5900 5900 5901 5901 5901 5902 5902 5905 5909 5913 5915 5917 5918 5920 5922 5925 5927 5928 5930 5932 5934 5936 5938 5940 5942 5943 5945 5946 5947 5948 5949 5950 5951 5953 5954 5955 5956 5957 5958 5959 5960 5961 5962 5963 5964 5965 5966 5967 5967
5818 5821 5824 5827 5832 5835 5835 5837 5840 5844 5847 5852 5855 5858 5860 5862 5865 5868 5871 5874 5875 5877 5879 5881 5882 5884 5885 5887 5889 5891 5892 5894 5895 5895 5896 5897 5898 5899 5899 5899 5899 5899 5899 5900 5903 5907 5910 5912 5914 5916 5918 5920 5922 5924 5926 5928 5930 5932 5934 5935 5937 5939 5940 5942 5943 5945 5946 5947 5948 5950 5951 5953 5954 5955 5956 5957 5958 5959 5960 5961 5962 5963 5964 5965 5966 5966
5816 5819 5823 5826 5829 5831 5831 5834 5839 5842 5845 5849 5851 5854 5857 5860 5864 5867 5870 5871 5873 5875 5878 5880 5881 5883 5884 5885 5887 5889 5891 5892 5894 5894 5894 5895 5896 5897 5897 5897 5897 5897 5897 5898 5902 5906 5908 5910 5913 5914 5916 5918 5920 5922 5924 5926 5927 5929 5931 5933 5934 5935 5937 5939 5941 5942 5944 5945 5946 5948 5949 5951 5952 5953 5954 5955 5956 5957 5959 5960 5961 5962 5963 5964 5965 5965
5814 5818 5821 5824 5827 5829 5831 5834 5837 5839 5842 5846 5849 5852 5855 5858 5862 5865 5867 5868 5870 5873 5875 5877 5880 5881 5882 5883 5885 5887 5889 5890 5892 5893 5893 5894 5895 5895 5895 5895 5896 5896 5897 5899 5902 5905 5907 5909 5911 5913 5914 5916 5918 5920 5921 5923 5925 5927 5928 5930 5931 5932 5934 5936 5938 5939 5941 5942 5944 5945 5947 5948 5950 5951 5952 5954 5955 5956 5957 5958 5959 5960 5961 5962 5963 5964
5813 5816 5819 5822 5826 5828 5831 5833 5835 5837 5841 5844 5846 5848 5852 5855 5858 5861 5863 5865 5868 5871 5873 5875 5877 5878 5879 5881 5883 5885 5887 5888 5890 5891 5892 5893 5894 5894 5894 5895 5896 5896 5898 5899 5902 5904 5906 5908 5909 5911 5912 5914 5915 5917 5919 5921 5923 5924 5926 5927 5928 5930 5932 5933 5935 5937 5938 5940 5941 5943 5945 5946 5948 5949 5950 5951 5953 5954 5955 5956 5957 5958 5959 5960 5961 5962
5811 5814 5816 5820 5823 5825 5828 5830 5832 5835 5839 5841 5843 5845 5849 5852 5854 5857 5860 5862 5865 5868 5870 5872 5875 5877 5878 5879 5881 5883 5884 5886 5888 5889 5891 5892 5892 5893 5894 5895 5896 5897 5898 5899 5901 5902 5904 5906 5907 5909 5911 5912 5913 5914 5916 5918 5920 5922 5923 5925 5926 5928 5929 5931 5932 5934 5936 5937 5939 5941 5942 5944 5945 5946 5948 5949 5950 5951 5953 5954 5955 5956 5957 5958 5959 5960
5809 5812 5814 5817 5820 5822 5825 5827 5830 5834 5837 5839 5842 5845 5848 5850 5852 5855 5858 5860 5863 5865 5867 5870 5873 5875 5877 5878 5879 5881 5883 5884 5886 5887 5889 5890 5891 5892 5893 5894 5895 5896 5898 5899 5900 5901 5902 5904 5905 5906 5908 5909 5910 5912 5914 5916 5917 5919 5921 5922 5924 5925 5927 5928 5930 5932 5933 5935 5937 5939 5940 5942 5943 5944 5945 5946 5947 5949 5950 5952 5953 5954 5955 5956 5957 5958
5807 5810 5812 5815 5818 5821 5823 5826 5828 5832 5835 5838 5841 5844 5846 5848 5850 5853 5856 5858 5860 5863 5865 5867 5870 5872 5874 5876 5878 5879 5881 5882 5884 5886 5887 5888 5890 5891 5892 5893 5894 5896 5897 5898 5898 5899 5900 5902 5903 5904 5905 5906 5908 5910 5911 5912 5914 5916 5917 5919 5920 5922 5924 5926 5927 5929 5931 5933 5935 5937 5938 5939 5940 5941 5943 5944 5945 5946 5947 5949 5950 5951 5953 5954 5955 5956
5806 5808 5810 5813 5816 5819 5822 5825 5827 5830 5833 5836 5838 5841 5843 5846 5849 5851 5853 5855 5857 5860 5863 5865 5866 5868 5871 5873 5875 5877 5879 5881 5882 5883 5885 5886 5888 5889 5891 5892 5893 5895 5896 5896 5897 5898 5898 5899 5900 5901 5902 5903 5905 5907 5909 5910 5911 5912 5913 5915 5917 5919 5921 5923 5925 5926 5928 5930 5932 5934 5935 5937 5938 5939 5940 5941 5942 5943 5944 5946 5947 5949 5950 5951 5952 5953
5804 5807 5808 5811 5815 5818 5821 5823 5826 5829 5832 5833 5835 5838 5840 5843 5845 5848 5850 5853 5855 5857 5859 5861 5862 5864 5867 5870 5872 5874 5876 5878 5880 5881 5882 5884 5886 5887 5889 5890 5891 5892 5894 5894 5895 5896 5897 5897 5898 5899 5900 5900 5901 5903 5905 5906 5906 5907 5910 5912 5913 5915 5918 5920 5922 5923 5925 5927 5929 5930 5932 5933 5935 5936 5937 5939 5940 5941 5942 5943 5945 5946 5947 5948 5949 5951
5802 5805 5807 5811 5814 5816 5818 5822 5825 5828 5830 5831 5833 5835 5838 5840 5842 5844 5847 5850 5852 5853 5855 5857 5859 5862 5864 5866 5869 5871 5873 5875 5877 5878 5880 5882 5883 5885 5887 5888 5889 5890 5891 5892 5893 5894 5895 5895 5896 5897 5897 5898 5898 5899 5900 5902 5902 5903 5906 5909 5910 5912 5915 5917 5920 5921 5923 5924 5926 5927 5928 5930 5931 5933 5934 5936 5937 5938 5939 5941 5942 5944 5945 5946 5947 5948
5801 5803 5806 5809 5812 5814 5816 5819 5822 5825 5827 5828 5829 5832 5835 5838 5840 5842 5844 5846 5848 5850 5852 5854 5856 5859 5862 5864 5866 5868 5870 5872 5874 5875 5877 5879 5880 5882 5884 5885 5886 5887 5888 5889 5890 5892 5893 5893 5894 5895 5895 5895 5896 5896 5897 5898 5898 5899 5903 5907 5909 5911 5912 5914 5917 5919 5920 5921 5922 5924 5925 5927 5928 5929 5931 5932 5934 5935 5937 5938 5940 5941 5942 5943 5944 5945
5800 5802 5804 5806 5810 5813 5814 5816 5820 5822 5823 5824 5826 5830 5833 5835 5837 5839 5841 5844 5846 5848 5850 5853 5855 5858 5860 5861 5863 5865 5866 5868 5870 5872 5874 5875 5877 5879 5881 5882 5883 5884 5885 5886 5888 5889 5890 5891 5892 5892 5892 5892 5893 5894 5894 5894 5895 5896 5899 5903 5905 5907 5907 5908 5912 5916 5917 5917 5919 5920 5922 5923 5924 5926 5927 5929 5930 5932 5934 5935 5937 5938 5939 5940 5941 5941
5798 5800 5802 5804 5807 5809 5811 5814 5817 5818 5818 5821 5825 5828 5830 5833 5835 5838 5840 5842 5844 5846 5848 5851 5853 5855 5857 5858 5860 5861 5863 5865 5867 5869 5870 5872 5874 5876 5878 5879 5880 5882 5883 5884 5885 5886 5888 5889 5889 5889 5889 5889 5890 5891 5892 5892 5892 5894 5896 5897 5899 5901 5902 5903 5907 5910 5911 5912 5915 5916 5918 5919 5921 5922 5924 5926 5927 5929 5930 5932 5933 5935 5936 5937 5937 5938
5796 5798 5800 5803 5804 5807 5810 5812 5813 5814 5816 5820 5823 5826 5828 5831 5833 5836 5838 5840 5842 5844 5846 5848 5850 5852 5853 5855 5857 5858 5860 5862 5864 5866 5867 5868 5870 5872 5874 5876 5877 5878 5880 5881 5882 5883 5884 5885 5886 5887 5887 5887 5888 5889 5890 5890 5891 5892 5894 5895 5895 5897 5899 5901 5904 5906 5907 5908 5910 5912 5914 5916 5918 5920 5921 5922 5924 5925 5927 5928 5930 5931 5932 5932 5932 5933
5794 5796 5798 5801 5803 5806 5809 5810 5810 5812 5815 5818 5821 5823 5826 5829 5831 5834 5836 5838 5840 5841 5843 5845 5847 5849 5851 5852 5854 5856 5857 5859 5861 5862 5863 5865 5866 5868 5870 5872 5874 5875 5876 5878 5879 5880 5881 5882 5883 5884 5884 5884 5885 5886 5887 5888 5890 5891 5892 5892 5892 5894 5896 5898 5900 5902 5904 5905 5905 5907 5910 5912 5914 5917 5917 5917 5919 5921 5923 5925 5926 5925 5926 5927 5928 5930
5793 5795 5797 5799 5802 5804 5806 5808 5809 5811 5813 5815 5818 5821 5824 5827 5829 5831 5834 5836 5837 5839 5841 5843 5845 5846 5848 5850 5852 5854 5855 5856 5858 5859 5860 5861 5863 5864 5866 5868 5870 5871 5872 5874 5876 5877 5878 5879 5880 5881 5882 5882 5882 5883 5884 5886 5888 5889 5890 5889 5888 5890 5892 5894 5895 5897 5899 5899 5900 5903 5906 5908 5909 5911 5912 5912 5914 5916 5918 5920 5921 5920 5921 5923 5925 5926
5791 5793 5795 5798 5800 5801 5804 5807 5808 5808 5810 5812 5815 5819 5822 5824 5827 5829 5831 5833 5834 5836 5838 5840 5842 5844 5845 5847 5849 5851 5852 5853 5854 5855 5856 5857 5859 5860 5862 5864 5865 5867 5869 5871 5872 5874 5875 5876 5877 5878 5879 5880 5880 5881 5882 5883 5884 5886 5888 5887 5887 5888 5889 5890 5891 5892 5893 5894 5896 5900 5903 5904 5904 5905 5905 5907 5910 5911 5913 5914 5915 5916 5918 5919 5920 5921
5789 5791 5793 5795 5797 5799 5802 5804 5804 5805 5808 5811 5813 5816 5819 5822 5825 5827 5827 5828 5830 5833 5835 5837 5839 5841 5842 5844 5846 5847 5848 5849 5851 5852 5853 5854 5856 5857 5859 5861 5862 5863 5865 5867 5868 5870 5872 5873 5874 5875 5876 5877 5878 5878 5879 5880 5881 5883 5884 5885 5885 5886 5887 5888 5888 5889 5889 5891 5893 5896 5898 5899 5898 5897 5899 5901 5904 5906 5908 5909 5910 5912 5914 5915 5916 5917
5787 5789 5791 5793 5795 5797 5800 5801 5802 5804 5806 5808 5810 5813 5816 5819 5821 5822 5823 5825 5828 5830 5832 5834 5836 5838 5839 5841 5842 5843 5844 5845 5848 5849 5851 5852 5853 5854 5855 5857 5859 5860 5862 5863 5864 5866 5868 5869 5871 5872 5873 5874 5875 5876 5877 5878 5879 5880 5880 5882 5883 5884 5884 5886 5886 5887 5888 5889 5891 5893 5895 5895 5894 5894 5894 5896 5898 5901 5903 5904 5906 5907 5909 5910 5912 5913
5785 5787 5789 5791 5793 5795 5797 5799 5800 5802 5804 5806 5808 5811 5814 5816 5818 5818 5820 5823 5825 5827 5828 5830 5832 5834 5836 5837 5838 5839 5840 5842 5845 5847 5848 5849 5850 5851 5852 5854 5855 5857 5858 5859 5861 5862 5863 5865 5867 5868 5870 5871 5872 5873 5874 5876 5877 5878 5878 5878 5880 5881 5882 5883 5884 5885 5886 5887 5888 5890 5891 5892 5892 5892 5892 5893 5896 5897 5898 5900 5901 5902 5904 5907 5907 5908
5784 5785 5787 5789 5791 5793 5795 5796 5797 5799 5802 5804 5806 5809 5811 5813 5815 5816 5818 5819 5821 5823 5825 5827 5829 5831 5832 5833 5835 5836 5837 5839 5841 5842 5844 5845 5846 5847 5849 5850 5851 5853 5854 5855 5857 5858 5860 5861 5863 5865 5866 5867 5869 5870 5871 5872 5874 5875 5875 5876 5878 5879 5880 5881 5882 5883 5884 5885 5885 5886 5887 5888 5889 5890 5891 5891 5893 5894 5895 5896 5897 5898 5900 5902 5903 5903
5783 5784 5786 5787 5788 5790 5792 5793 5795 5797 5799 5801 5803 5806 5808 5810 5812 5814 5815 5816 5818 5819 5821 5823 5825 5827 5829 5830 5832 5833 5834 5835 5836 5837 5838 5839 5841 5843 5845 5846 5847 5849 5850 5852 5853 5855 5856 5858 5859 5861 5862 5864 5865 5867 5868 5869 5870 5871 5872 5873 5874 5876 5877 5878 5880 5881 5882 5882 5883 5883 5884 5885 5886 5887 5888 5889 5890 5891 5892 5893 5894 5895 5896 5898 5899 5900
5782 5783 5785 5786 5787 5788 5790 5791 5793 5796 5797 5799 5800 5802 5805 5807 5809 5811 5812 5813 5815 5816 5818 5820 5822 5824 5826 5827 5829 5830 5831 5831 5832 5833 5834 5834 5836 5838 5840 5842 5843 5845 5847 5848 5849 5851 5852 5854 5856 5857 5858 5860 5861 5863 5864 5865 5867 5868 5869 5870 5871 5872 5873 5875 5876 5878 5879 5880 5881 5881 5882 5882 5883 5884 5885 5886 5887 5888 5889 5890 5891 5892 5893 5894 5895 5896
5782 5783 5784 5785 5786 5787 5788 5790 5791 5793 5795 5796 5798 5799 5801 5804 5806 5808 5809 5811 5812 5813 5815 5816 5818 5820 5823 5824 5825 5826 5828 5828 5829 5830 5831 5832 5833 5834 5835 5837 5838 5840 5842 5844 5845 5847 5848 5850 5852 5853 5854 5856 5857 5859 5860 5861 5863 5864 5865 5866 5867 5868 5870 5871 5873 5874 5875 5876 5877 5878 5879 5879 5880 5881 5882 5883 5884 5885 5886 5887 5888 5889 5890 5891 5892 5893
5781 5782 5783 5784 5785 5786 5787 5788 5790 5791 5793 5794 5796 5797 5799 5800 5802 5805 5806 5808 5809 5811 5812 5814 5815 5816 5819 5820 5821 5823 5824 5825 5825 5826 5827 5828 5829 5830 5831 5833 5834 5835 5837 5839 5841 5842 5844 5846 5848 5849 5850 5852 5853 5854 5856 5857 5859 5860 5861 5862 5863 5864 5866 5867 5869 5870 5871 5872 5873 5875 5875 5876 5877 5878 5878 5880 5881 5882 5883 5884 5885 5886 5887 5888 5889 5890
5780 5781 5782 5783 5784 5785 5786 5787 5789 5790 5791 5792 5794 5795 5796 5798 5799 5801 5803 5805 5806 5807 5809 5811 5813 5814 5815 5817 5818 5819 5820 5820 5820 5821 5822 5823 5824 5826 5827 5829 5830 5831 5833 5834 5836 5837 5839 5841 5843 5844 5845 5847 5848 5850 5851 5853 5854 5856 5857 5858 5859 5860 5861 5862 5864 5866 5867 5868 5869 5870 5871 5872 5873 5874 5874 5875 5877 5878 5879 5880 5881 5882 5883 5884 5884 5885
5779 5780 5781 5782 5783 5784 5785 5786 5787 5788 5789 5791 5792 5793 5794 5796 5797 5798 5800 5801 5803 5804 5805 5806 5808 5810 5812 5814 5814 5814 5814 5815 5815 5816 5817 5818 5819 5821 5823 5824 5825 5826 5828 5829 5830 5832 5833 5836 5837 5839 5840 5841 5843 5844 5846 5847 5849 5850 5852 5853 5854 5855 5856 5857 5859 5860 5862 5863 5864 5865 5866 5867 5869 5869 5870 5871 5872 5873 5874 5876 5877 5878 5878 5879 5880 5880
5778 5779 5780 5781 5781 5782 5783 5785 5785 5786 5787 5789 5790 5791 5792 5793 5794 5796 5797 5798 5799 5800 5801 5802 5804 5806 5807 5809 5809 5808 5809 5810 5811 5812 5814 5815 5815 5816 5818 5819 5820 5821 5823 5824 5825 5826 5828 5830 5832 5833 5834 5836 5837 5838 5840 5841 5842 5844 5845 5847 5848 5849 5851 5852 5853 5854 5855 5857 5858 5859 5861 5862 5863 5864 5865 5866 5867 5868 5869 5870 5871 5872 5873 5874 5874 5875
5776 5777 5778 5778 5779 5780 5781 5783 5784 5784 5785 5786 5787 5788 5789 5790 5791 5792 5794 5795 5796 5797 5798 5799 5800 5801 5803 5804 5804 5804 5804 5805 5806 5808 5810 5810 5810 5811 5813 5814 5815 5816 5817 5818 5820 5821 5823 5824 5826 5827 5828 5830 5831 5832 5833 5835 5836 5837 5839 5840 5841 5842 5844 5845 5846 5848 5849 5850 5852 5853 5854 5855 5856 5857 5859 5860 5860 5861 5862 5863 5864 5865 5867 5868 5868 5869